Location: Montr�al
(45.5000°N, 73.5830°W)
Time: 19:03:14
(UTC-04:00)

ISS - Visible Passes

Search period start: 25 July 2014 00:00
Search period end: 04 August 2014 00:00
Orbit: 411 x 420 km, 51.6° (Epoch: 25 July)

Date Brightness Start Highest point End Pass type
(mag) Time Alt. Az. Time Alt. Az. Time Alt. Az.
25 Jul -2.1 02:14:22 39° ENE 02:14:22 39° ENE 02:16:38 10° ENE visible
25 Jul -1.6 03:47:14 10° WNW 03:50:15 32° N 03:53:19 10° NE visible
26 Jul -0.6 01:27:13 14° ENE 01:27:13 14° ENE 01:27:48 10° ENE visible
26 Jul -2.0 03:00:05 27° WNW 03:01:20 38° NNW 03:04:32 10° NE visible
26 Jul -1.2 04:35:40 10° WNW 04:38:38 28° N 04:41:36 10° ENE visible
27 Jul -2.2 02:12:55 46° N 02:12:55 46° N 02:15:46 10° NE visible
27 Jul -1.2 03:46:44 10° WNW 03:49:41 27° N 03:52:39 10° ENE visible
28 Jul -1.0 01:25:46 21° NE 01:25:46 21° NE 01:27:01 10° ENE visible
28 Jul -1.3 02:58:37 16° WNW 03:00:45 29° N 03:03:45 10° NE visible
28 Jul -1.5 04:34:57 10° NW 04:38:04 34° NNE 04:41:11 10° E visible
29 Jul -1.6 02:11:29 32° NNW 02:11:51 33° NNW 02:14:56 10° NE visible
29 Jul -1.3 03:46:09 10° NW 03:49:10 29° N 03:52:11 10° ENE visible
30 Jul -1.1 01:24:21 26° NE 01:24:21 26° NE 01:26:10 10° NE visible
30 Jul -1.2 02:57:17 10° WNW 03:00:15 27° N 03:03:12 10° ENE visible
30 Jul -2.4 04:34:07 10° WNW 04:37:27 54° NNE 04:40:45 10° ESE visible
31 Jul -0.2 00:37:17 11° NE 00:37:17 11° NE 00:37:26 10° NE visible
31 Jul -1.2 02:10:09 22° NW 02:11:20 27° N 02:14:17 10° ENE visible
31 Jul -1.9 03:45:24 10° NW 03:48:37 40° NNE 03:51:49 10° E visible
01 Aug -1.1 01:23:12 26° NNE 01:23:12 26° NNE 01:25:26 10° NE visible
01 Aug -1.5 02:56:39 10° NW 02:59:45 33° NNE 03:02:50 10° E visible
01 Aug -3.3 04:33:20 10° WNW 04:36:42 74° SSW 04:40:03 10° SE visible
02 Aug -0.2 00:36:33 11° NE 00:36:33 11° NE 00:36:39 10° NE visible
02 Aug -1.2 02:09:28 21° NW 02:10:52 29° N 02:13:52 10° ENE visible
02 Aug -3.1 03:44:35 10° WNW 03:47:58 73° NNE 03:51:19 10° ESE visible
02 Aug -3.0 22:04:46 10° SW 22:07:57 42° SE 22:08:36 37° ESE visible
02 Aug -0.4 23:41:29 10° W 23:41:45 12° W 23:41:45 12° W visible
03 Aug -0.6 01:23:49 17° NE 01:23:49 17° NE 01:24:55 10° ENE visible
03 Aug -2.4 02:56:50 17° NW 02:59:11 51° NNE 03:02:28 10° E visible
03 Aug -2.5 04:32:47 10° WNW 04:35:48 30° SW 04:38:48 10° SSE visible
03 Aug -2.3 21:16:31 10° SSW 21:19:20 26° SE 21:22:11 10° E visible
03 Aug -2.6 22:52:36 10° WSW 22:55:53 56° NNW 22:57:45 23° NE visible
